This is the latest recevied weather packets stored in our database for station/object KD9ZDW. If no packets are shown the sender has not sent any weather packets the latest 10 day(s).
| Time | Temp. | Humidity | Pressure | Rain* | Wind** | Luminosity | Snow |
|---|---|---|---|---|---|---|---|
| 1777903686 | 16.11° C | 64% | 1008.2 hPa | 0 mm | - | 121 W/m² | - |
| 1777903382 | 15.56° C | 65% | 1008.3 hPa | 0 mm | - | 226 W/m² | - |
| 1777903078 | 15.56° C | 66% | 1008.3 hPa | 0 mm | - | 60 W/m² | - |
| 1777902775 | 15° C | 65% | 1008.2 hPa | 0 mm | - | 286 W/m² | - |
| 1777902473 | 15° C | 66% | 1008.5 hPa | 0 mm | - | 142 W/m² | - |
| 1777902169 | 15° C | 67% | 1008.5 hPa | 0 mm | - | 125 W/m² | - |
| 1777901867 | 15° C | 66% | 1008.2 hPa | 0 mm | - | 192 W/m² | - |
| 1777901564 | 14.44° C | 67% | 1008.3 hPa | 0 mm | - | 126 W/m² | - |
| 1777901262 | 13.89° C | 67% | 1008.4 hPa | 0 mm | - | 310 W/m² | - |
| 1777900959 | 13.89° C | 68% | 1008.4 hPa | 0 mm | - | 291 W/m² | - |
| 1777900656 | 13.89° C | 68% | 1008.4 hPa | 0 mm | - | 186 W/m² | - |
| 1777900353 | 13.33° C | 68% | 1008.4 hPa | 0 mm | - | 211 W/m² | - |
| 1777900050 | 13.33° C | 69% | 1008.4 hPa | 0 mm | - | 94 W/m² | - |
| 1777899746 | 13.33° C | 68% | 1008.5 hPa | 0 mm | - | 196 W/m² | - |
| 1777899444 | 13.33° C | 68% | 1008.7 hPa | 0 mm | - | 228 W/m² | - |
| 1777899141 | 13.33° C | 69% | 1008.7 hPa | 0 mm | - | 139 W/m² | - |
| 1777898839 | 13.33° C | 68% | 1008.7 hPa | 0 mm | - | 202 W/m² | - |
| 1777898536 | 12.78° C | 69% | 1008.7 hPa | 0 mm | - | 185 W/m² | - |
| 1777898234 | 12.78° C | 70% | 1009 hPa | 0 mm | - | 185 W/m² | - |
| 1777897931 | 12.22° C | 71% | 1008.7 hPa | 0 mm | - | 168 W/m² | - |
| 1777897626 | 12.78° C | 70% | 1008.9 hPa | 0 mm | - | 156 W/m² | - |
| 1777897322 | 12.22° C | 71% | 1008.9 hPa | 0 mm | - | 40 W/m² | - |
| 1777897018 | 11.67° C | 72% | 1008.8 hPa | 0 mm | - | 129 W/m² | - |
| 1777896716 | 12.22° C | 72% | 1008.8 hPa | 0 mm | - | 38 W/m² | - |
| 1777896412 | 11.67° C | 73% | 1008.9 hPa | 0 mm | - | 83 W/m² | - |
* Rain latest hour (hover to see other rain measurements)
** Current wind speed in m/s (hover to see current wind gust speed)